DAL1894 KATL-TNCM

Flight info

Callsign DAL1894
Flight time 3h 20m
Altitude 35000
Route VRSTY3 NOKIE DCT YANTI Q89 MANLE Y185 SATOW/N0454F370 Y185 RENAH Y355 SLUGO
Aircraft B752/M-SDE2E3FGHIJ3J4J7RWXY/LB1

Departure

Time 2026-05-03 21:28
Airport Hartsfield Jackson Atlanta International Airport (KATL)

Arrival

Time 2026-05-04 00:48
Airport Princess Juliana International Airport (TNCM)
Time Latitude Longitude Altitude Speed Heading
2026-05-03 21:03 33.64116 -84.42328 993 ft 0 kts 180°
2026-05-03 21:18 33.64127 -84.42328 993 ft 2 kts 180°
2026-05-03 21:18 33.64143 -84.42328 993 ft 2 kts 179°
2026-05-03 21:18 33.64158 -84.42328 992 ft 2 kts 180°
2026-05-03 21:19 33.64168 -84.42327 992 ft 2 kts 178°
2026-05-03 21:19 33.64182 -84.42333 992 ft 2 kts 144°
2026-05-03 21:19 33.64192 -84.42346 993 ft 2 kts 117°
2026-05-03 21:19 33.64196 -84.42361 993 ft 0 kts 92°
2026-05-03 21:20 33.64196 -84.42369 994 ft 1 kts 88°
2026-05-03 21:20 33.64196 -84.42370 994 ft 0 kts 88°
2026-05-03 21:22 33.64196 -84.42333 992 ft 16 kts 89°
2026-05-03 21:22 33.64155 -84.42244 988 ft 12 kts 173°
2026-05-03 21:22 33.64025 -84.42241 988 ft 26 kts 181°
2026-05-03 21:22 33.63865 -84.42238 989 ft 18 kts 176°
2026-05-03 21:23 33.63739 -84.42234 989 ft 17 kts 180°
2026-05-03 21:23 33.63659 -84.42175 987 ft 14 kts 99°
2026-05-03 21:23 33.63655 -84.42026 981 ft 21 kts 91°
2026-05-03 21:23 33.63654 -84.41821 970 ft 26 kts 90°
2026-05-03 21:24 33.63655 -84.41597 966 ft 26 kts 90°
2026-05-03 21:24 33.63655 -84.41383 964 ft 24 kts 90°
2026-05-03 21:24 33.63655 -84.41187 964 ft 23 kts 90°
2026-05-03 21:24 33.63655 -84.40993 961 ft 23 kts 90°
2026-05-03 21:25 33.63611 -84.40910 957 ft 11 kts 169°
2026-05-03 21:25 33.63588 -84.40907 957 ft 0 kts 180°
2026-05-03 21:25 33.63581 -84.40907 957 ft 2 kts 180°
2026-05-03 21:26 33.63547 -84.40907 957 ft 7 kts 180°
2026-05-03 21:26 33.63475 -84.40929 958 ft 9 kts 246°
2026-05-03 21:26 33.63472 -84.40949 959 ft 0 kts 266°
2026-05-03 21:27 33.63470 -84.41025 961 ft 33 kts 269°
2026-05-03 21:27 33.63470 -84.41575 967 ft 99 kts 270°
2026-05-03 21:27 33.63470 -84.42662 1003 ft 158 kts 270°
2026-05-03 21:28 33.63472 -84.44163 1167 ft 202 kts 271°
2026-05-03 21:28 33.63503 -84.45959 1714 ft 233 kts 272°
2026-05-03 21:28 33.63506 -84.48059 2226 ft 266 kts 270°
2026-05-03 21:28 33.63471 -84.50072 3203 ft 254 kts 272°
2026-05-03 21:29 33.63397 -84.52225 3668 ft 262 kts 269°
2026-05-03 21:29 33.63343 -84.54388 4423 ft 261 kts 270°
2026-05-03 21:29 33.63291 -84.56609 5032 ft 266 kts 270°
2026-05-03 21:29 33.63240 -84.58821 5750 ft 267 kts 270°
2026-05-03 21:30 33.63187 -84.61063 6366 ft 271 kts 271°
2026-05-03 21:30 33.63268 -84.63302 7039 ft 272 kts 268°
2026-05-03 21:30 33.62774 -84.65478 7646 ft 279 kts 241°
2026-05-03 21:30 33.61424 -84.67194 8299 ft 286 kts 214°
2026-05-03 21:31 33.59692 -84.68368 8930 ft 289 kts 212°
2026-05-03 21:31 33.57830 -84.69301 9530 ft 297 kts 192°
2026-05-03 21:31 33.55748 -84.69305 10008 ft 308 kts 174°
2026-05-03 21:31 33.53639 -84.68935 9995 ft 313 kts 173°
2026-05-03 21:32 33.51501 -84.68556 10014 ft 304 kts 173°
2026-05-03 21:32 33.49402 -84.68175 10053 ft 308 kts 173°
2026-05-03 21:32 33.47283 -84.67783 10706 ft 308 kts 173°
2026-05-03 21:32 33.45176 -84.67388 11491 ft 306 kts 173°
2026-05-03 21:33 33.43107 -84.66729 12020 ft 314 kts 155°
2026-05-03 21:33 33.41323 -84.65260 12622 ft 317 kts 135°
2026-05-03 21:33 33.40000 -84.63137 13143 ft 322 kts 118°
2026-05-03 21:33 33.38970 -84.60735 13681 ft 325 kts 118°
2026-05-03 21:34 33.37872 -84.58336 14109 ft 332 kts 120°
2026-05-03 21:34 33.36737 -84.55924 14622 ft 335 kts 120°
2026-05-03 21:34 33.35556 -84.53432 14665 ft 354 kts 120°
2026-05-03 21:34 33.34313 -84.50837 14701 ft 372 kts 120°
2026-05-03 21:35 33.32986 -84.48080 14729 ft 391 kts 120°
2026-05-03 21:35 33.31580 -84.45164 14899 ft 405 kts 120°
2026-05-03 21:35 33.30183 -84.42268 15494 ft 405 kts 121°
2026-05-03 21:35 33.28760 -84.39323 15890 ft 411 kts 121°
2026-05-03 21:36 33.27336 -84.36379 16405 ft 413 kts 121°
2026-05-03 21:36 33.25892 -84.33398 16876 ft 416 kts 122°
2026-05-03 21:36 33.24426 -84.30372 17358 ft 420 kts 122°
2026-05-03 21:36 33.22970 -84.27370 17868 ft 422 kts 122°
2026-05-03 21:37 33.21480 -84.24300 18316 ft 426 kts 122°
2026-05-03 21:37 33.19990 -84.21234 18764 ft 430 kts 122°
2026-05-03 21:37 33.18474 -84.18117 19211 ft 433 kts 122°
2026-05-03 21:37 33.16961 -84.15008 19699 ft 436 kts 122°
2026-05-03 21:38 33.15439 -84.11885 20155 ft 438 kts 122°
2026-05-03 21:38 33.13900 -84.08726 20575 ft 443 kts 122°
2026-05-03 21:38 33.12340 -84.05529 21039 ft 445 kts 122°
2026-05-03 21:38 33.10787 -84.02352 21459 ft 449 kts 123°
2026-05-03 21:39 33.09010 -83.99232 21814 ft 450 kts 133°
2026-05-03 21:39 33.06864 -83.96590 22291 ft 448 kts 142°
2026-05-03 21:39 33.04382 -83.94304 22663 ft 449 kts 148°
2026-05-03 21:39 33.01860 -83.92114 23035 ft 453 kts 148°
2026-05-03 21:40 32.99300 -83.89925 23492 ft 454 kts 148°
2026-05-03 21:40 32.96728 -83.87749 23861 ft 457 kts 149°
2026-05-03 21:40 32.94108 -83.85542 24283 ft 460 kts 149°
2026-05-03 21:40 32.91500 -83.83356 24722 ft 463 kts 149°
2026-05-03 21:41 32.88821 -83.81117 25081 ft 467 kts 150°
2026-05-03 21:41 32.86161 -83.78896 25487 ft 469 kts 150°
2026-05-03 21:41 32.83481 -83.76662 25910 ft 471 kts 150°
2026-05-03 21:41 32.80801 -83.74432 26215 ft 475 kts 150°
2026-05-03 21:42 32.78084 -83.72173 26606 ft 477 kts 150°
2026-05-03 21:42 32.75360 -83.69910 26970 ft 479 kts 151°
2026-05-03 21:42 32.72621 -83.67643 27287 ft 483 kts 151°
2026-05-03 21:42 32.69844 -83.65334 27615 ft 485 kts 151°
2026-05-03 21:43 32.67124 -83.62981 27996 ft 488 kts 149°
2026-05-03 21:43 32.64402 -83.60562 28260 ft 492 kts 149°
2026-05-03 21:43 32.61652 -83.58134 28618 ft 493 kts 149°
2026-05-03 21:43 32.58864 -83.55673 28912 ft 496 kts 150°
2026-05-03 21:44 32.56110 -83.53238 29216 ft 499 kts 150°
2026-05-03 21:44 32.53341 -83.50794 29551 ft 500 kts 150°
2026-05-03 21:44 32.50492 -83.48290 29734 ft 505 kts 150°
2026-05-03 21:44 32.47696 -83.45831 30145 ft 504 kts 150°
2026-05-03 21:45 32.44843 -83.43319 30484 ft 505 kts 151°
2026-05-03 21:45 32.42020 -83.40843 30817 ft 506 kts 151°
2026-05-03 21:45 32.39234 -83.38387 31289 ft 503 kts 151°
2026-05-03 21:45 32.36424 -83.35922 31538 ft 504 kts 151°
2026-05-03 21:46 32.33602 -83.33445 32022 ft 500 kts 152°
2026-05-03 21:46 32.30799 -83.30994 32274 ft 499 kts 153°
2026-05-03 21:46 32.28022 -83.28559 32760 ft 495 kts 153°
2026-05-03 21:46 32.25256 -83.26144 32899 ft 497 kts 153°
2026-05-03 21:47 32.22465 -83.23705 33246 ft 495 kts 153°
2026-05-03 21:47 32.19695 -83.21287 33566 ft 494 kts 153°
2026-05-03 21:47 32.16908 -83.18858 33713 ft 496 kts 153°
2026-05-03 21:47 32.14154 -83.16454 34059 ft 492 kts 153°
2026-05-03 21:48 32.08589 -83.11610 34089 ft 492 kts 153°
2026-05-03 21:48 32.03067 -83.06808 34080 ft 491 kts 153°
2026-05-03 21:49 31.97550 -83.02021 34077 ft 493 kts 154°
2026-05-03 21:49 31.92007 -82.97214 34069 ft 490 kts 153°
2026-05-03 21:50 31.86514 -82.92461 34087 ft 490 kts 154°
2026-05-03 21:50 31.80977 -82.87678 34083 ft 492 kts 153°
2026-05-03 21:51 31.75584 -82.82742 34083 ft 495 kts 150°
2026-05-03 21:51 31.70224 -82.77632 34081 ft 491 kts 151°
2026-05-03 21:52 31.64897 -82.72576 34086 ft 493 kts 150°
2026-05-03 21:52 31.59563 -82.67519 34088 ft 494 kts 150°
2026-05-03 21:53 31.54249 -82.62489 34086 ft 490 kts 151°
2026-05-03 21:53 31.48907 -82.57446 34090 ft 492 kts 151°
2026-05-03 21:54 31.43567 -82.52405 34089 ft 491 kts 150°
2026-05-03 21:54 31.38242 -82.47390 34090 ft 491 kts 150°
2026-05-03 21:55 31.32914 -82.42378 34092 ft 492 kts 150°
2026-05-03 21:55 31.27588 -82.37376 34095 ft 491 kts 150°
2026-05-03 21:56 31.22272 -82.32388 34070 ft 487 kts 151°
2026-05-03 21:56 31.16974 -82.27431 34063 ft 489 kts 151°
2026-05-03 21:57 31.11623 -82.22428 34054 ft 492 kts 151°
2026-05-03 21:57 31.06297 -82.17453 34048 ft 489 kts 151°
2026-05-03 21:58 31.00968 -82.12485 34040 ft 488 kts 152°
2026-05-03 21:58 30.95652 -82.07541 34048 ft 494 kts 151°
2026-05-03 21:59 30.90291 -82.02556 34045 ft 491 kts 152°
2026-05-03 21:59 30.84911 -81.97561 34052 ft 490 kts 152°
2026-05-03 22:00 30.79594 -81.92633 34053 ft 490 kts 152°
2026-05-03 22:00 30.74216 -81.87661 34048 ft 495 kts 152°
2026-05-03 22:01 30.68833 -81.82684 34066 ft 492 kts 152°
2026-05-03 22:01 30.63498 -81.77758 34068 ft 489 kts 153°
2026-05-03 22:02 30.58039 -81.73190 34080 ft 481 kts 156°
2026-05-03 22:02 30.52538 -81.68769 34097 ft 487 kts 156°
2026-05-03 22:03 30.46970 -81.64286 34078 ft 486 kts 156°
2026-05-03 22:03 30.41381 -81.59792 34085 ft 487 kts 156°
2026-05-03 22:04 30.35780 -81.55291 34089 ft 484 kts 157°
2026-05-03 22:04 30.30292 -81.50887 34099 ft 483 kts 157°
2026-05-03 22:05 30.24704 -81.46413 34100 ft 485 kts 157°
2026-05-03 22:05 30.19162 -81.41980 34090 ft 488 kts 157°
2026-05-03 22:06 30.13555 -81.37498 34089 ft 487 kts 157°
2026-05-03 22:06 30.08008 -81.33073 34080 ft 487 kts 158°
2026-05-03 22:07 30.02404 -81.28609 34075 ft 485 kts 158°
2026-05-03 22:07 29.96833 -81.24177 34082 ft 485 kts 158°
2026-05-03 22:08 29.91305 -81.19785 34075 ft 485 kts 158°
2026-05-03 22:08 29.85683 -81.15328 34082 ft 491 kts 158°
2026-05-03 22:09 29.80041 -81.11239 34086 ft 463 kts 168°
2026-05-03 22:10 29.70969 -81.07063 34093 ft 468 kts 171°
2026-05-03 22:10 29.64959 -81.04253 34085 ft 463 kts 170°
2026-05-03 22:11 29.59010 -81.01457 34086 ft 463 kts 171°
2026-05-03 22:11 29.52998 -80.98631 34088 ft 466 kts 170°
2026-05-03 22:12 29.47020 -80.95815 34089 ft 465 kts 170°
2026-05-03 22:12 29.40991 -80.92981 34088 ft 465 kts 170°
2026-05-03 22:13 29.35009 -80.90170 34097 ft 465 kts 170°
2026-05-03 22:13 29.28998 -80.87352 34075 ft 466 kts 170°
2026-05-03 22:14 29.22985 -80.84533 34083 ft 464 kts 171°
2026-05-03 22:14 29.16975 -80.81723 34090 ft 468 kts 170°
2026-05-03 22:15 29.10944 -80.78902 34073 ft 467 kts 170°
2026-05-03 22:15 29.04948 -80.76101 34088 ft 464 kts 171°
2026-05-03 22:16 28.98923 -80.73296 34085 ft 469 kts 170°
2026-05-03 22:16 28.92889 -80.70483 34069 ft 463 kts 170°
2026-05-03 22:16 28.89936 -80.68916 34065 ft 477 kts 163°
2026-05-03 22:17 28.87088 -80.66769 34093 ft 493 kts 153°
2026-05-03 22:17 28.84515 -80.64111 34089 ft 508 kts 144°
2026-05-03 22:17 28.82247 -80.60951 34141 ft 523 kts 134°
2026-05-03 22:17 28.80287 -80.57450 34355 ft 529 kts 131°
2026-05-03 22:18 28.78327 -80.53921 34725 ft 524 kts 133°
2026-05-03 22:18 28.76310 -80.50377 34870 ft 525 kts 134°
2026-05-03 22:18 28.74346 -80.46954 35093 ft 522 kts 133°
2026-05-03 22:19 28.70322 -80.40029 35081 ft 521 kts 134°
2026-05-03 22:19 28.66272 -80.33179 35060 ft 521 kts 135°
2026-05-03 22:20 28.62232 -80.26363 35058 ft 517 kts 135°
2026-05-03 22:20 28.58207 -80.19591 35046 ft 518 kts 134°
2026-05-03 22:21 28.54147 -80.12771 35055 ft 520 kts 135°
2026-05-03 22:21 28.50074 -80.05941 35055 ft 523 kts 134°
2026-05-03 22:22 28.46027 -79.99154 35058 ft 516 kts 135°
2026-05-03 22:22 28.41977 -79.92388 35058 ft 517 kts 134°
2026-05-03 22:23 28.37905 -79.85591 35063 ft 519 kts 134°
2026-05-03 22:23 28.33822 -79.78787 35059 ft 520 kts 134°
2026-05-03 22:24 28.29786 -79.72069 35058 ft 518 kts 134°
2026-05-03 22:24 28.25708 -79.65294 35055 ft 518 kts 134°
2026-05-03 22:25 28.21631 -79.58530 35061 ft 517 kts 134°
2026-05-03 22:25 28.17557 -79.51788 35062 ft 520 kts 134°
2026-05-03 22:26 28.13490 -79.45058 35064 ft 517 kts 134°
2026-05-03 22:26 28.09426 -79.38350 35064 ft 517 kts 134°
2026-05-03 22:27 28.05374 -79.31671 35035 ft 515 kts 134°
2026-05-03 22:27 28.01306 -79.24972 35041 ft 513 kts 134°
2026-05-03 22:28 27.97271 -79.18345 35046 ft 514 kts 134°
2026-05-03 22:28 27.93182 -79.11638 35045 ft 516 kts 134°
2026-05-03 22:29 27.89125 -79.04987 35051 ft 513 kts 134°
2026-05-03 22:29 27.85058 -78.98338 35044 ft 513 kts 134°
2026-05-03 22:30 27.80988 -78.91692 35049 ft 514 kts 134°
2026-05-03 22:30 27.76943 -78.85094 35044 ft 510 kts 134°
2026-05-03 22:31 27.72920 -78.78543 35046 ft 509 kts 134°
2026-05-03 22:31 27.68867 -78.71957 35040 ft 510 kts 134°
2026-05-03 22:32 27.64817 -78.65382 35050 ft 509 kts 134°
2026-05-03 22:32 27.60888 -78.58701 35041 ft 512 kts 131°
2026-05-03 22:33 27.56971 -78.51984 35036 ft 510 kts 132°
2026-05-03 22:33 27.53059 -78.45289 35040 ft 508 kts 131°
2026-05-03 22:34 27.49145 -78.38608 35041 ft 509 kts 131°
2026-05-03 22:34 27.45227 -78.31925 35021 ft 510 kts 132°
2026-05-03 22:35 27.41329 -78.25291 35018 ft 509 kts 132°
2026-05-03 22:35 27.37430 -78.18658 35021 ft 509 kts 132°
2026-05-03 22:36 27.33502 -78.11991 35017 ft 509 kts 132°
2026-05-03 22:36 27.29636 -78.05434 35008 ft 507 kts 131°
2026-05-03 22:37 27.25729 -77.98819 35015 ft 507 kts 131°
2026-05-03 22:37 27.21807 -77.92191 35014 ft 507 kts 131°
2026-05-03 22:38 27.17912 -77.85613 35006 ft 507 kts 132°
2026-05-03 22:38 27.13966 -77.78965 35014 ft 509 kts 131°
2026-05-03 22:39 27.10033 -77.72343 35019 ft 511 kts 131°
2026-05-03 22:39 27.06123 -77.65769 35009 ft 507 kts 131°
2026-05-03 22:40 27.02195 -77.59179 35011 ft 507 kts 131°
2026-05-03 22:40 26.98303 -77.52547 35010 ft 508 kts 131°
2026-05-03 22:41 26.94433 -77.45905 35014 ft 509 kts 130°
2026-05-03 22:41 26.90530 -77.39214 35010 ft 509 kts 130°
2026-05-03 22:42 26.86652 -77.32579 34996 ft 509 kts 131°
2026-05-03 22:42 26.82740 -77.25897 34997 ft 510 kts 131°
2026-05-03 22:43 26.78846 -77.19254 35000 ft 510 kts 130°
2026-05-03 22:43 26.74955 -77.12626 35002 ft 512 kts 131°
2026-05-03 22:44 26.71037 -77.05958 35002 ft 509 kts 130°
2026-05-03 22:44 26.67115 -76.99299 35005 ft 510 kts 130°
2026-05-03 22:45 26.63221 -76.92696 35003 ft 509 kts 130°
2026-05-03 22:45 26.59316 -76.86083 35004 ft 510 kts 130°
2026-05-03 22:46 26.55412 -76.79481 35006 ft 510 kts 130°
2026-05-03 22:46 26.51482 -76.72845 35004 ft 511 kts 130°
2026-05-03 22:47 26.47546 -76.66206 35486 ft 509 kts 130°
2026-05-03 22:47 26.43624 -76.59609 35769 ft 512 kts 130°
2026-05-03 22:47 26.41633 -76.56259 35896 ft 513 kts 130°
2026-05-03 22:48 26.39665 -76.52953 36081 ft 513 kts 130°
2026-05-03 22:48 26.37676 -76.49613 36253 ft 513 kts 130°
2026-05-03 22:48 26.35706 -76.46306 36334 ft 515 kts 130°
2026-05-03 22:48 26.33718 -76.42972 36563 ft 513 kts 130°
2026-05-03 22:49 26.31722 -76.39628 36710 ft 513 kts 130°
2026-05-03 22:49 26.27760 -76.32997 36854 ft 515 kts 130°
2026-05-03 22:49 26.25774 -76.29673 37016 ft 510 kts 131°
2026-05-03 22:50 26.23798 -76.26372 36994 ft 510 kts 130°
2026-05-03 22:50 26.19863 -76.19807 36999 ft 510 kts 130°
2026-05-03 22:51 26.15904 -76.13210 36997 ft 510 kts 130°
2026-05-03 22:51 26.11958 -76.06643 36997 ft 510 kts 130°
2026-05-03 22:52 26.08016 -76.00092 37007 ft 510 kts 130°
2026-05-03 22:52 26.04047 -75.93505 37007 ft 510 kts 130°
2026-05-03 22:53 26.00090 -75.86949 37005 ft 510 kts 130°
2026-05-03 22:53 25.96144 -75.80421 37012 ft 511 kts 130°
2026-05-03 22:54 25.92184 -75.73878 37012 ft 510 kts 130°
2026-05-03 22:54 25.88172 -75.67258 37017 ft 511 kts 130°
2026-05-03 22:55 25.84196 -75.60707 37018 ft 511 kts 129°
2026-05-03 22:55 25.80225 -75.54172 37021 ft 510 kts 130°
2026-05-03 22:56 25.76269 -75.47672 37013 ft 508 kts 129°
2026-05-03 22:56 25.72299 -75.41159 37023 ft 509 kts 129°
2026-05-03 22:57 25.68329 -75.34656 37018 ft 510 kts 130°
2026-05-03 22:57 25.64359 -75.28159 37007 ft 507 kts 130°
2026-05-03 22:58 25.60386 -75.21671 37008 ft 507 kts 130°
2026-05-03 22:58 25.56433 -75.15218 37009 ft 506 kts 130°
2026-05-03 22:59 25.52476 -75.08772 37009 ft 506 kts 129°
2026-05-03 22:59 25.48526 -75.02344 37010 ft 505 kts 129°
2026-05-03 23:00 25.44577 -74.95927 37009 ft 505 kts 129°
2026-05-03 23:00 25.40609 -74.89487 37005 ft 505 kts 129°
2026-05-03 23:01 25.36632 -74.83044 37014 ft 505 kts 129°
2026-05-03 23:01 25.32676 -74.76641 37014 ft 505 kts 129°
2026-05-03 23:02 25.28703 -74.70222 37011 ft 504 kts 129°
2026-05-03 23:02 25.24724 -74.63800 37014 ft 505 kts 129°
2026-05-03 23:03 25.20765 -74.57419 37015 ft 505 kts 129°
2026-05-03 23:03 25.16765 -74.50980 37017 ft 504 kts 129°
2026-05-03 23:04 25.12820 -74.44641 37017 ft 505 kts 129°
2026-05-03 23:04 25.08805 -74.38193 37015 ft 503 kts 129°
2026-05-03 23:05 25.04828 -74.31818 36999 ft 504 kts 129°
2026-05-03 23:05 25.00849 -74.25448 37003 ft 503 kts 129°
2026-05-03 23:06 24.96906 -74.19144 37004 ft 503 kts 129°
2026-05-03 23:06 24.92903 -74.12753 37000 ft 503 kts 129°
2026-05-03 23:07 24.88918 -74.06398 37008 ft 503 kts 129°
2026-05-03 23:07 24.84935 -74.00056 37012 ft 504 kts 129°
2026-05-03 23:08 24.80959 -73.93730 37010 ft 505 kts 129°
2026-05-03 23:08 24.76934 -73.87337 37011 ft 505 kts 128°
2026-05-03 23:09 24.72921 -73.80971 37004 ft 505 kts 129°
2026-05-03 23:09 24.68902 -73.74606 37012 ft 505 kts 128°
2026-05-03 23:10 24.64905 -73.68282 37011 ft 506 kts 128°
2026-05-03 23:10 24.60876 -73.61916 37019 ft 506 kts 128°
2026-05-03 23:11 24.56830 -73.55526 37008 ft 506 kts 127°
2026-05-03 23:11 24.53206 -73.48891 37021 ft 509 kts 123°
2026-05-03 23:12 24.49577 -73.42153 37019 ft 509 kts 123°
2026-05-03 23:12 24.45963 -73.35465 37021 ft 510 kts 123°
2026-05-03 23:13 24.42358 -73.28804 37012 ft 508 kts 124°
2026-05-03 23:13 24.38723 -73.22102 37009 ft 509 kts 124°
2026-05-03 23:14 24.35086 -73.15404 37011 ft 509 kts 124°
2026-05-03 23:14 24.31475 -73.08764 37009 ft 509 kts 123°
2026-05-03 23:15 24.27828 -73.02066 37018 ft 509 kts 124°
2026-05-03 23:15 24.24192 -72.95398 37014 ft 509 kts 124°
2026-05-03 23:16 24.20556 -72.88741 37018 ft 510 kts 123°
2026-05-03 23:16 24.16913 -72.82078 37015 ft 509 kts 123°
2026-05-03 23:17 24.13250 -72.75387 37016 ft 510 kts 123°
2026-05-03 23:17 24.09615 -72.68758 37019 ft 509 kts 123°
2026-05-03 23:18 24.05967 -72.62114 37020 ft 510 kts 123°
2026-05-03 23:18 24.02312 -72.55466 37022 ft 509 kts 124°
2026-05-03 23:19 23.98645 -72.48803 37024 ft 509 kts 123°
2026-05-03 23:19 23.94977 -72.42151 37027 ft 510 kts 123°
2026-05-03 23:20 23.91331 -72.35547 37028 ft 509 kts 123°
2026-05-03 23:20 23.87654 -72.28893 37018 ft 509 kts 124°
2026-05-03 23:21 23.84000 -72.22292 37016 ft 509 kts 123°
2026-05-03 23:21 23.80335 -72.15681 37024 ft 509 kts 124°
2026-05-03 23:22 23.74817 -72.05740 37027 ft 509 kts 124°
2026-05-03 23:22 23.71159 -71.99162 37027 ft 509 kts 123°
2026-05-03 23:23 23.67473 -71.92544 37025 ft 509 kts 123°
2026-05-03 23:23 23.63794 -71.85945 37032 ft 509 kts 123°
2026-05-03 23:24 23.59995 -71.79471 37041 ft 506 kts 129°
2026-05-03 23:24 23.55739 -71.73306 37032 ft 505 kts 129°
2026-05-03 23:25 23.51503 -71.67181 37031 ft 505 kts 129°
2026-05-03 23:25 23.47282 -71.61090 37032 ft 504 kts 129°
2026-05-03 23:26 23.43040 -71.54979 37030 ft 505 kts 129°
2026-05-03 23:26 23.38776 -71.48844 37033 ft 505 kts 129°
2026-05-03 23:27 23.34558 -71.42784 37036 ft 503 kts 129°
2026-05-03 23:27 23.30319 -71.36702 37034 ft 503 kts 129°
2026-05-03 23:28 23.26083 -71.30630 37028 ft 503 kts 129°
2026-05-03 23:28 23.21876 -71.24606 37025 ft 502 kts 130°
2026-05-03 23:29 23.17630 -71.18536 37028 ft 501 kts 129°
2026-05-03 23:29 23.13430 -71.12537 37028 ft 502 kts 129°
2026-05-03 23:30 23.09179 -71.06473 37024 ft 501 kts 129°
2026-05-03 23:30 23.04978 -71.00486 37029 ft 501 kts 129°
2026-05-03 23:31 23.00731 -70.94442 37024 ft 501 kts 129°
2026-05-03 23:31 22.96513 -70.88444 37035 ft 501 kts 129°
2026-05-03 23:32 22.92265 -70.82413 37025 ft 500 kts 129°
2026-05-03 23:32 22.87971 -70.76336 37029 ft 501 kts 129°
2026-05-03 23:33 22.83761 -70.70387 37023 ft 500 kts 129°
2026-05-03 23:33 22.79482 -70.64346 37024 ft 500 kts 129°
2026-05-03 23:34 22.75251 -70.58380 37025 ft 501 kts 129°
2026-05-03 23:34 22.70987 -70.52373 37022 ft 501 kts 129°
2026-05-03 23:35 22.66750 -70.46414 37028 ft 501 kts 129°
2026-05-03 23:35 22.62496 -70.40434 37023 ft 500 kts 129°
2026-05-03 23:36 22.58240 -70.34461 37028 ft 501 kts 129°
2026-05-03 23:36 22.53983 -70.28493 37016 ft 501 kts 129°
2026-05-03 23:37 22.49742 -70.22553 37019 ft 500 kts 129°
2026-05-03 23:37 22.45475 -70.16583 37019 ft 501 kts 129°
2026-05-03 23:38 22.41215 -70.10631 37018 ft 501 kts 129°
2026-05-03 23:38 22.36942 -70.04668 37011 ft 500 kts 129°
2026-05-03 23:39 22.32664 -69.98703 37019 ft 501 kts 129°
2026-05-03 23:39 22.28399 -69.92763 37013 ft 501 kts 129°
2026-05-03 23:40 22.24128 -69.86822 37015 ft 500 kts 129°
2026-05-03 23:40 22.19852 -69.80881 37014 ft 501 kts 129°
2026-05-03 23:41 22.15559 -69.74923 37021 ft 500 kts 129°
2026-05-03 23:41 22.11296 -69.69013 37020 ft 500 kts 129°
2026-05-03 23:42 22.06996 -69.63059 37022 ft 501 kts 129°
2026-05-03 23:42 22.02683 -69.57094 37019 ft 502 kts 129°
2026-05-03 23:43 21.98408 -69.51186 37022 ft 500 kts 129°
2026-05-03 23:43 21.94116 -69.45264 37026 ft 501 kts 129°
2026-05-03 23:44 21.89792 -69.39301 37025 ft 501 kts 129°
2026-05-03 23:44 21.85477 -69.33357 37018 ft 500 kts 129°
2026-05-03 23:45 21.81187 -69.27457 37019 ft 500 kts 129°
2026-05-03 23:45 21.76898 -69.21564 37023 ft 500 kts 129°
2026-05-03 23:46 21.72612 -69.15681 37021 ft 500 kts 129°
2026-05-03 23:46 21.68284 -69.09746 37029 ft 500 kts 129°
2026-05-03 23:47 21.63998 -69.03876 37025 ft 501 kts 129°
2026-05-03 23:47 21.59666 -68.97950 37029 ft 500 kts 129°
2026-05-03 23:48 21.55374 -68.92084 37031 ft 501 kts 129°
2026-05-03 23:48 21.51062 -68.86198 37028 ft 501 kts 129°
2026-05-03 23:49 21.46753 -68.80320 37031 ft 500 kts 129°
2026-05-03 23:49 21.42427 -68.74425 37032 ft 500 kts 129°
2026-05-03 23:50 21.38117 -68.68561 37035 ft 499 kts 129°
2026-05-03 23:50 21.33920 -68.62854 37034 ft 500 kts 129°
2026-05-03 23:51 21.29594 -68.56981 37036 ft 499 kts 129°
2026-05-03 23:51 21.25282 -68.51130 37036 ft 499 kts 129°
2026-05-03 23:52 21.20952 -68.45262 37034 ft 500 kts 129°
2026-05-03 23:52 21.16624 -68.39404 37037 ft 500 kts 129°
2026-05-03 23:53 21.12285 -68.33535 37030 ft 499 kts 129°
2026-05-03 23:53 21.07965 -68.27700 37031 ft 500 kts 129°
2026-05-03 23:54 21.03633 -68.21853 37030 ft 498 kts 129°
2026-05-03 23:54 20.99332 -68.16055 37030 ft 499 kts 129°
2026-05-03 23:55 20.94994 -68.10214 37031 ft 499 kts 129°
2026-05-03 23:55 20.90667 -68.04392 37033 ft 499 kts 129°
2026-05-03 23:56 20.86342 -67.98577 37028 ft 499 kts 129°
2026-05-03 23:56 20.82045 -67.92671 37028 ft 498 kts 128°
2026-05-03 23:57 20.77792 -67.86822 37028 ft 498 kts 128°
2026-05-03 23:57 20.73795 -67.80785 37039 ft 497 kts 118°
2026-05-03 23:58 20.70457 -67.74299 37029 ft 497 kts 119°
2026-05-03 23:58 20.67020 -67.67901 37029 ft 497 kts 120°
2026-05-03 23:59 20.63559 -67.61552 37027 ft 496 kts 120°
2026-05-03 23:59 20.60055 -67.55170 37031 ft 497 kts 120°
2026-05-04 00:00 20.56555 -67.48811 37032 ft 495 kts 120°
2026-05-04 00:00 20.53047 -67.42444 37033 ft 495 kts 120°
2026-05-04 00:01 20.49550 -67.36111 37035 ft 495 kts 120°
2026-05-04 00:01 20.46042 -67.29766 37029 ft 493 kts 120°
2026-05-04 00:02 20.42550 -67.23454 37026 ft 494 kts 120°
2026-05-04 00:02 20.39050 -67.17137 37027 ft 493 kts 120°
2026-05-04 00:03 20.35577 -67.10876 37029 ft 493 kts 120°
2026-05-04 00:03 20.32079 -67.04574 37030 ft 493 kts 120°
2026-05-04 00:04 20.28566 -66.98256 37030 ft 493 kts 120°
2026-05-04 00:04 20.25085 -66.91998 37031 ft 492 kts 120°
2026-05-04 00:05 20.21588 -66.85721 37033 ft 492 kts 120°
2026-05-04 00:05 20.18078 -66.79427 37034 ft 491 kts 120°
2026-05-04 00:06 20.14595 -66.73186 37034 ft 490 kts 120°
2026-05-04 00:06 20.11106 -66.66943 37037 ft 491 kts 120°
2026-05-04 00:07 20.07635 -66.60739 37035 ft 489 kts 120°
2026-05-04 00:07 20.04146 -66.54510 37034 ft 489 kts 120°
2026-05-04 00:08 20.00661 -66.48293 37033 ft 489 kts 120°
2026-05-04 00:08 19.97187 -66.42104 37032 ft 488 kts 120°
2026-05-04 00:09 19.93691 -66.35881 37030 ft 481 kts 120°
2026-05-04 00:09 19.90272 -66.29800 36651 ft 483 kts 120°
2026-05-04 00:10 19.88559 -66.26758 36376 ft 487 kts 120°
2026-05-04 00:10 19.86794 -66.23623 36088 ft 485 kts 120°
2026-05-04 00:10 19.85063 -66.20551 35801 ft 482 kts 120°
2026-05-04 00:10 19.83342 -66.17498 35519 ft 481 kts 120°
2026-05-04 00:11 19.81614 -66.14435 35237 ft 481 kts 120°
2026-05-04 00:11 19.79902 -66.11401 34959 ft 481 kts 120°
2026-05-04 00:11 19.78162 -66.08320 34676 ft 481 kts 120°
2026-05-04 00:11 19.76441 -66.05273 34400 ft 482 kts 120°
2026-05-04 00:12 19.74733 -66.02251 34124 ft 481 kts 120°
2026-05-04 00:12 19.73010 -65.99205 33846 ft 481 kts 120°
2026-05-04 00:12 19.71282 -65.96152 33570 ft 481 kts 120°
2026-05-04 00:12 19.69567 -65.93121 33300 ft 481 kts 120°
2026-05-04 00:13 19.67825 -65.90046 33025 ft 481 kts 120°
2026-05-04 00:13 19.66094 -65.86990 32757 ft 482 kts 120°
2026-05-04 00:13 19.64375 -65.83959 32509 ft 482 kts 120°
2026-05-04 00:13 19.62635 -65.80892 32255 ft 482 kts 120°
2026-05-04 00:14 19.60927 -65.77882 32012 ft 482 kts 120°
2026-05-04 00:14 19.59184 -65.74814 31761 ft 482 kts 120°
2026-05-04 00:14 19.57458 -65.71775 31510 ft 482 kts 120°
2026-05-04 00:14 19.55733 -65.68740 31261 ft 482 kts 120°
2026-05-04 00:15 19.54010 -65.65710 31010 ft 482 kts 120°
2026-05-04 00:15 19.52270 -65.62655 30762 ft 482 kts 120°
2026-05-04 00:15 19.50544 -65.59621 30510 ft 482 kts 120°
2026-05-04 00:15 19.48794 -65.56550 30222 ft 483 kts 120°
2026-05-04 00:16 19.47063 -65.53513 29601 ft 488 kts 120°
2026-05-04 00:16 19.45306 -65.50431 28968 ft 482 kts 120°
2026-05-04 00:16 19.43600 -65.47441 28331 ft 473 kts 120°
2026-05-04 00:16 19.41907 -65.44474 27692 ft 469 kts 120°
2026-05-04 00:17 19.40226 -65.41528 27055 ft 465 kts 120°
2026-05-04 00:17 19.38559 -65.38609 26424 ft 461 kts 120°
2026-05-04 00:17 19.36897 -65.35699 25917 ft 454 kts 120°
2026-05-04 00:17 19.35294 -65.32896 25464 ft 445 kts 120°
2026-05-04 00:18 19.33697 -65.30102 24998 ft 436 kts 120°
2026-05-04 00:18 19.32128 -65.27361 24535 ft 429 kts 120°
2026-05-04 00:18 19.30594 -65.24680 24082 ft 423 kts 120°
2026-05-04 00:18 19.29094 -65.22060 23635 ft 417 kts 120°
2026-05-04 00:19 19.27595 -65.19445 23187 ft 411 kts 121°
2026-05-04 00:19 19.26118 -65.16866 22735 ft 406 kts 120°
2026-05-04 00:19 19.24664 -65.14332 22292 ft 401 kts 121°
2026-05-04 00:19 19.23220 -65.11813 21866 ft 396 kts 121°
2026-05-04 00:20 19.21805 -65.09347 21444 ft 391 kts 121°
2026-05-04 00:20 19.20387 -65.06877 21018 ft 387 kts 121°
2026-05-04 00:20 19.18998 -65.04459 20592 ft 383 kts 121°
2026-05-04 00:20 19.17626 -65.02071 20171 ft 380 kts 121°
2026-05-04 00:21 19.16261 -64.99696 19757 ft 376 kts 121°
2026-05-04 00:21 19.14908 -64.97343 19406 ft 374 kts 122°
2026-05-04 00:21 19.13551 -64.94984 19055 ft 376 kts 122°
2026-05-04 00:21 19.12176 -64.92595 18706 ft 378 kts 122°
2026-05-04 00:22 19.10357 -64.89435 18237 ft 378 kts 122°
2026-05-04 00:22 19.09446 -64.87856 18001 ft 377 kts 122°
2026-05-04 00:22 19.08086 -64.85496 17643 ft 376 kts 122°
2026-05-04 00:22 19.06724 -64.83132 17293 ft 374 kts 123°
2026-05-04 00:23 19.05384 -64.80810 16943 ft 371 kts 122°
2026-05-04 00:23 19.04037 -64.78474 16585 ft 368 kts 122°
2026-05-04 00:23 19.02708 -64.76173 16342 ft 362 kts 122°
2026-05-04 00:23 19.01415 -64.73933 16111 ft 360 kts 122°
2026-05-04 00:24 19.00099 -64.71656 15878 ft 361 kts 122°
2026-05-04 00:24 18.98788 -64.69385 15645 ft 360 kts 122°
2026-05-04 00:24 18.97479 -64.67120 15406 ft 359 kts 122°
2026-05-04 00:24 18.96192 -64.64897 15173 ft 356 kts 122°
2026-05-04 00:25 18.94899 -64.62661 14935 ft 353 kts 122°
2026-05-04 00:25 18.93617 -64.60446 14702 ft 352 kts 122°
2026-05-04 00:25 18.92356 -64.58267 14468 ft 349 kts 122°
2026-05-04 00:25 18.91081 -64.56067 14229 ft 347 kts 122°
2026-05-04 00:26 18.89850 -64.53944 14000 ft 346 kts 121°
2026-05-04 00:26 18.88606 -64.51794 13765 ft 345 kts 121°
2026-05-04 00:26 18.87347 -64.49622 13527 ft 342 kts 121°
2026-05-04 00:26 18.86109 -64.47486 13292 ft 341 kts 121°
2026-05-04 00:27 18.84868 -64.45346 13055 ft 339 kts 121°
2026-05-04 00:27 18.83643 -64.43237 12817 ft 337 kts 121°
2026-05-04 00:27 18.82412 -64.41115 12579 ft 335 kts 121°
2026-05-04 00:27 18.81197 -64.39024 12343 ft 334 kts 121°
2026-05-04 00:28 18.79986 -64.36934 12104 ft 332 kts 121°
2026-05-04 00:28 18.78785 -64.34869 11870 ft 331 kts 121°
2026-05-04 00:28 18.77572 -64.32783 11539 ft 333 kts 121°
2026-05-04 00:28 18.76352 -64.30686 11142 ft 331 kts 121°
2026-05-04 00:29 18.75180 -64.28667 11018 ft 318 kts 121°
2026-05-04 00:29 18.74028 -64.26689 11024 ft 312 kts 121°
2026-05-04 00:29 18.72870 -64.24700 11039 ft 322 kts 121°
2026-05-04 00:29 18.72090 -64.23360 11028 ft 325 kts 121°
2026-05-04 00:30 18.70511 -64.20650 11028 ft 322 kts 121°
2026-05-04 00:30 18.69335 -64.18630 11029 ft 322 kts 121°
2026-05-04 00:30 18.68157 -64.16610 11031 ft 323 kts 121°
2026-05-04 00:30 18.66987 -64.14603 11027 ft 322 kts 121°
2026-05-04 00:31 18.65802 -64.12570 11028 ft 323 kts 121°
2026-05-04 00:31 18.64625 -64.10552 11029 ft 324 kts 121°
2026-05-04 00:31 18.63450 -64.08538 11026 ft 322 kts 121°
2026-05-04 00:31 18.62262 -64.06504 11030 ft 323 kts 121°
2026-05-04 00:32 18.61092 -64.04499 11030 ft 323 kts 121°
2026-05-04 00:32 18.59903 -64.02464 11029 ft 323 kts 121°
2026-05-04 00:32 18.58732 -64.00459 11026 ft 321 kts 121°
2026-05-04 00:32 18.57564 -63.98461 11028 ft 320 kts 121°
2026-05-04 00:33 18.56394 -63.96460 11025 ft 320 kts 121°
2026-05-04 00:33 18.54047 -63.92447 11031 ft 324 kts 121°
2026-05-04 00:33 18.52851 -63.90404 11025 ft 322 kts 121°
2026-05-04 00:34 18.51676 -63.88398 11028 ft 321 kts 121°
2026-05-04 00:34 18.50503 -63.86395 11031 ft 322 kts 121°
2026-05-04 00:34 18.49319 -63.84369 11031 ft 323 kts 121°
2026-05-04 00:34 18.48145 -63.82367 11030 ft 324 kts 121°
2026-05-04 00:35 18.46964 -63.80353 11031 ft 323 kts 121°
2026-05-04 00:35 18.45770 -63.78318 11033 ft 321 kts 121°
2026-05-04 00:35 18.44609 -63.76339 11028 ft 318 kts 121°
2026-05-04 00:35 18.43442 -63.74348 11032 ft 318 kts 121°
2026-05-04 00:36 18.42291 -63.72386 11019 ft 307 kts 121°
2026-05-04 00:36 18.41195 -63.70520 10993 ft 292 kts 121°
2026-05-04 00:36 18.40152 -63.68744 10857 ft 283 kts 121°
2026-05-04 00:36 18.39081 -63.66998 10450 ft 284 kts 129°
2026-05-04 00:37 18.37705 -63.65517 10171 ft 280 kts 135°
2026-05-04 00:37 18.36286 -63.64085 9682 ft 285 kts 135°
2026-05-04 00:37 18.34866 -63.62653 9221 ft 288 kts 135°
2026-05-04 00:37 18.33395 -63.61183 8744 ft 291 kts 135°
2026-05-04 00:38 18.31925 -63.59719 8274 ft 293 kts 135°
2026-05-04 00:38 18.30448 -63.58248 7736 ft 289 kts 135°
2026-05-04 00:38 18.29008 -63.56818 7235 ft 275 kts 135°
2026-05-04 00:38 18.27645 -63.55467 6747 ft 264 kts 135°
2026-05-04 00:39 18.26324 -63.54154 6257 ft 255 kts 135°
2026-05-04 00:39 18.25062 -63.52902 5775 ft 248 kts 135°
2026-05-04 00:39 18.23825 -63.51674 5287 ft 243 kts 135°
2026-05-04 00:39 18.22597 -63.50456 4802 ft 241 kts 134°
2026-05-04 00:40 18.21379 -63.49247 4316 ft 240 kts 134°
2026-05-04 00:40 18.20161 -63.48042 3831 ft 239 kts 134°
2026-05-04 00:40 18.18954 -63.46846 3346 ft 236 kts 135°
2026-05-04 00:40 18.17770 -63.45673 2858 ft 231 kts 134°
2026-05-04 00:41 18.16638 -63.44541 2547 ft 219 kts 134°
2026-05-04 00:41 18.15560 -63.43485 2544 ft 203 kts 134°
2026-05-04 00:41 18.14521 -63.42444 2568 ft 213 kts 134°
2026-05-04 00:41 18.13431 -63.41367 2554 ft 214 kts 134°
2026-05-04 00:42 18.12333 -63.40311 2555 ft 212 kts 134°
2026-05-04 00:42 18.11244 -63.39235 2554 ft 213 kts 134°
2026-05-04 00:42 18.10166 -63.38163 2549 ft 213 kts 134°
2026-05-04 00:42 18.09091 -63.37082 2551 ft 213 kts 134°
2026-05-04 00:43 18.08006 -63.36004 2549 ft 214 kts 134°
2026-05-04 00:43 18.06934 -63.34938 2540 ft 206 kts 135°
2026-05-04 00:43 18.05610 -63.33635 2542 ft 186 kts 133°
2026-05-04 00:43 18.05000 -63.33022 2537 ft 178 kts 134°
2026-05-04 00:44 18.04092 -63.32129 2559 ft 178 kts 134°
2026-05-04 00:44 18.03168 -63.31210 2557 ft 184 kts 135°
2026-05-04 00:44 18.02235 -63.30294 2546 ft 183 kts 131°
2026-05-04 00:44 18.01689 -63.29133 2599 ft 178 kts 92°
2026-05-04 00:45 18.01785 -63.27795 2514 ft 185 kts 83°
2026-05-04 00:45 18.01930 -63.26519 2549 ft 169 kts 84°
2026-05-04 00:45 18.02088 -63.25310 2577 ft 163 kts 83°
2026-05-04 00:45 18.02230 -63.24099 2512 ft 174 kts 84°
2026-05-04 00:46 18.02413 -63.22776 2109 ft 188 kts 83°
2026-05-04 00:46 18.02605 -63.21400 1731 ft 194 kts 83°
2026-05-04 00:46 18.02807 -63.19973 1337 ft 201 kts 83°
2026-05-04 00:46 18.03006 -63.18552 1237 ft 187 kts 83°
2026-05-04 00:47 18.03187 -63.17276 1234 ft 167 kts 83°
2026-05-04 00:47 18.03350 -63.16128 1012 ft 153 kts 83°
2026-05-04 00:47 18.03500 -63.15078 862 ft 133 kts 83°
2026-05-04 00:47 18.03612 -63.14152 612 ft 125 kts 81°
2026-05-04 00:48 18.03762 -63.13257 336 ft 128 kts 79°
2026-05-04 00:48 18.03897 -63.12329 155 ft 127 kts 81°
2026-05-04 00:48 18.04021 -63.11428 23 ft 120 kts 82°
2026-05-04 00:48 18.04093 -63.10899 17 ft 35 kts 82°
2026-05-04 00:49 18.04106 -63.10764 17 ft 3 kts 11°
2026-05-04 00:49 18.04115 -63.10783 17 ft 5 kts 258°
2026-05-04 00:49 18.04090 -63.10910 17 ft 23 kts 260°
2026-05-04 00:49 18.04067 -63.11076 19 ft 19 kts 265°
2026-05-04 00:50 18.04122 -63.11163 20 ft 12 kts 328°
2026-05-04 00:50 18.04136 -63.11235 20 ft 10 kts 266°
2026-05-04 00:50 18.04160 -63.11293 20 ft 8 kts 334°
2026-05-04 00:50 18.04211 -63.11306 21 ft 6 kts 341°
2026-05-04 00:51 18.04235 -63.11349 22 ft 7 kts 269°
2026-05-04 00:51 18.04232 -63.11402 23 ft 6 kts 263°
2026-05-04 00:51 18.04228 -63.11462 24 ft 10 kts 283°
2026-05-04 00:51 18.04285 -63.11493 26 ft 9 kts 348°
2026-05-04 00:52 18.04301 -63.11496 26 ft 0 kts 350°